Date,TemperatureHighF,TemperatureAvgF,TemperatureLowF,DewpointHighF,DewpointAvgF,DewpointLowF,HumidityHigh,HumidityAvg,HumidityLow,PressureMaxIn,PressureMinIn,WindSpeedMaxMPH,WindSpeedAvgMPH,GustSpeedMaxMPH,PrecipitationSumIn
2013-3-1,28,22,11,19,16,8,85,76,64,30.43,30.30,11,4,11,0.00
2013-3-2,28,17,3,16,9,-1,90,74,47,30.44,30.26,3,1,5,0.00
2013-3-3,32,22,11,13,9,7,87,59,40,30.25,30.07,4,2,9,0.00
2013-3-4,25,24,23,22,16,9,92,71,51,30.11,30.03,5,2,9,0.00
2013-3-5,27,24,16,25,22,13,95,90,83,30.37,30.05,9,1,10,0.00
2013-3-6,27,18,6,19,14,3,91,84,71,30.50,30.37,0,0,0,0.00
2013-3-7,33,18,-1,20,11,-4,92,76,56,30.50,30.38,4,1,10,0.03
2013-3-8,40,30,17,30,24,13,91,79,66,30.41,30.15,4,2,6,0.16
2013-3-9,36,34,32,35,32,28,96,92,77,30.15,29.75,3,1,6,0.57
2013-3-10,34,32,29,33,29,25,96,88,84,30.01,29.82,13,9,16,0.02
2013-3-11,29,27,24,25,23,18,88,84,74,29.92,29.80,11,4,13,0.00
2013-3-12,24,22,19,18,16,15,87,80,69,29.98,29.89,6,2,9,0.00
2013-3-13,34,25,11,16,13,8,89,63,40,30.45,30.35,4,2,4,0.00
2013-3-19,24,14,7,9,3,-3,78,62,46,30.26,29.88,6,4,12,0.00
2013-3-20,20,12,4,6,1,-4,70,61,50,30.29,30.19,9,4,12,0.00
2013-3-21,25,12,-5,12,4,-8,89,71,52,30.23,30.13,4,1,7,0.00
2013-3-22,34,19,0,19,10,-3,90,71,47,30.19,30.12,4,1,4,0.02
2013-3-23,37,26,10,26,18,7,91,72,50,30.22,30.15,3,1,3,0.00
2013-3-24,31,27,24,25,22,19,85,79,72,30.17,30.04,10,4,11,0.00
2013-3-25,38,29,18,24,20,13,84,69,51,30.27,30.10,9,3,11,0.00
2013-3-26,41,34,29,27,23,21,77,66,45,30.34,30.26,3,1,5,0.00
2013-3-27,42,33,24,26,21,18,81,63,41,30.40,30.34,3,1,4,0.00
2013-3-28,45,31,16,24,20,14,92,67,39,30.41,30.33,4,1,7,0.00
2013-3-29,49,37,24,34,28,20,88,72,53,30.35,30.13,4,1,5,0.00
2013-3-30,50,41,34,42,37,31,95,83,61,30.12,29.87,4,1,6,0.68
2013-3-31,38,33,24,31,24,14,92,70,41,30.12,29.82,10,4,14,0.00